TimeMST,TemperatureF,Dew PointF,Humidity,Sea Level PressureIn,VisibilityMPH,Wind Direction,Wind SpeedMPH,Gust SpeedMPH,PrecipitationIn,Events,Conditions,WindDirDegrees,DateUTC
12:53 AM,6.1,3.0,87,30.37,10.0,Calm,Calm,-,N/A,,Clear,0,2013-01-19 07:53:00
1:53 AM,3.9,1.9,91,30.39,10.0,Calm,Calm,-,N/A,,Clear,0,2013-01-19 08:53:00
2:53 AM,7.0,3.0,84,30.37,10.0,Calm,Calm,-,N/A,,Clear,0,2013-01-19 09:53:00
3:53 AM,1.9,-0.9,88,30.38,10.0,Calm,Calm,-,N/A,,Clear,0,2013-01-19 10:53:00
4:53 AM,1.9,-2.0,83,30.41,10.0,South,3.5,-,N/A,,Clear,180,2013-01-19 11:53:00
5:53 AM,1.9,-0.9,88,30.45,10.0,Calm,Calm,-,N/A,,Clear,0,2013-01-19 12:53:00
6:53 AM,1.0,-2.9,83,30.48,10.0,Calm,Calm,-,N/A,,Clear,0,2013-01-19 13:53:00
7:53 AM,-0.0,-4.0,83,30.52,10.0,Calm,Calm,-,N/A,,Clear,0,2013-01-19 14:53:00
8:53 AM,10.0,7.0,87,30.54,10.0,Calm,Calm,-,N/A,,Clear,0,2013-01-19 15:53:00
9:53 AM,17.1,12.0,81,30.55,10.0,Calm,Calm,-,N/A,,Clear,0,2013-01-19 16:53:00
10:53 AM,26.1,12.0,55,30.51,10.0,Calm,Calm,-,N/A,,Clear,0,2013-01-19 17:53:00
11:53 AM,34.0,16.0,48,30.45,10.0,Calm,Calm,-,N/A,,Clear,0,2013-01-19 18:53:00
12:53 PM,39.0,15.1,38,30.39,10.0,Calm,Calm,-,N/A,,Clear,0,2013-01-19 19:53:00
1:53 PM,43.0,14.0,31,30.38,10.0,ESE,4.6,-,N/A,,Clear,120,2013-01-19 20:53:00
2:53 PM,44.1,12.9,28,30.35,10.0,Variable,4.6,-,N/A,,Clear,0,2013-01-19 21:53:00
3:53 PM,45.0,12.0,26,30.38,10.0,East,5.8,-,N/A,,Clear,80,2013-01-19 22:53:00
4:53 PM,41.0,15.1,35,30.39,10.0,East,6.9,-,N/A,,Clear,80,2013-01-19 23:53:00
5:53 PM,35.1,15.1,44,30.42,10.0,ESE,9.2,-,N/A,,Clear,110,2013-01-20 00:53:00
6:53 PM,30.0,15.1,54,30.47,10.0,East,5.8,-,N/A,,Clear,100,2013-01-20 01:53:00
7:53 PM,21.9,14.0,72,30.53,10.0,Calm,Calm,-,N/A,,Clear,0,2013-01-20 02:53:00
8:53 PM,16.0,10.9,81,30.51,10.0,Calm,Calm,-,N/A,,Clear,0,2013-01-20 03:53:00
9:53 PM,15.1,10.9,84,30.49,10.0,Calm,Calm,-,N/A,,Clear,0,2013-01-20 04:53:00
10:53 PM,9.0,7.0,92,30.48,10.0,SSW,3.5,-,N/A,,Clear,200,2013-01-20 05:53:00
11:53 PM,12.0,8.1,84,30.43,10.0,Calm,Calm,-,N/A,,Clear,0,2013-01-20 06:53:00